TimeHST,TemperatureF,Dew PointF,Humidity,Sea Level PressureIn,VisibilityMPH,Wind Direction,Wind SpeedMPH,Gust SpeedMPH,PrecipitationIn,Events,Conditions,WindDirDegrees,DateUTC
12:13 AM,-9999,-9999,N/A,29.91,10.0,Calm,Calm,-,N/A,,Mostly Cloudy,0,2013-01-16 10:13:00
12:25 AM,-9999,-9999,N/A,29.91,10.0,Calm,Calm,-,N/A,,Mostly Cloudy,0,2013-01-16 10:25:00
12:53 AM,-9999,-9999,N/A,29.91,10.0,Calm,Calm,-,N/A,,Scattered Clouds,0,2013-01-16 10:53:00
1:53 AM,-9999,-9999,N/A,29.91,10.0,WNW,8.1,-,N/A,,Mostly Cloudy,300,2013-01-16 11:53:00
2:00 AM,-9999,-9999,N/A,29.90,10.0,NW,9.2,-,0.00,Rain,Light Rain,320,2013-01-16 12:00:00
2:30 AM,-9999,-9999,N/A,29.90,10.0,NE,6.9,-,0.00,,Mostly Cloudy,40,2013-01-16 12:30:00
2:41 AM,-9999,-9999,N/A,29.90,10.0,NE,5.8,-,0.00,,Mostly Cloudy,50,2013-01-16 12:41:00
2:53 AM,-9999,-9999,N/A,29.91,10.0,NE,5.8,-,0.00,,Mostly Cloudy,50,2013-01-16 12:53:00
3:19 AM,-9999,-9999,N/A,29.89,10.0,NE,5.8,-,N/A,,Mostly Cloudy,50,2013-01-16 13:19:00
3:34 AM,-9999,-9999,N/A,29.89,10.0,ENE,4.6,-,N/A,,Overcast,60,2013-01-16 13:34:00
3:53 AM,-9999,-9999,N/A,29.90,10.0,ENE,4.6,-,N/A,,Scattered Clouds,60,2013-01-16 13:53:00
4:53 AM,-9999,-9999,N/A,29.91,10.0,ENE,3.5,-,N/A,,Clear,70,2013-01-16 14:53:00
5:53 AM,-9999,-9999,N/A,29.91,10.0,ENE,4.6,-,N/A,,Clear,60,2013-01-16 15:53:00
5:55 AM,69.8,64.4,83,29.90,10.0,ENE,4.6,-,N/A,,Clear,60,2013-01-16 15:55:00
6:53 AM,69.8,64.9,84,29.91,10.0,ENE,5.8,-,N/A,,Clear,60,2013-01-16 16:53:00
7:53 AM,-9999,-9999,N/A,29.93,10.0,NE,5.8,-,N/A,,Clear,40,2013-01-16 17:53:00
7:54 AM,-9999,-9999,N/A,29.92,10.0,NE,5.8,-,N/A,,Clear,40,2013-01-16 17:54:00
8:00 AM,69.8,64.4,83,29.92,10.0,NE,5.8,-,N/A,,Clear,40,2013-01-16 18:00:00
8:53 AM,75.2,64.9,70,29.94,10.0,North,8.1,-,N/A,,Scattered Clouds,10,2013-01-16 18:53:00
9:53 AM,77.0,66.0,69,29.94,10.0,NNW,9.2,-,N/A,,Partly Cloudy,340,2013-01-16 19:53:00
10:53 AM,77.0,64.9,66,29.93,10.0,NNW,10.4,-,N/A,,Clear,330,2013-01-16 20:53:00
11:53 AM,78.8,66.2,65,29.89,10.0,NNW,11.5,-,N/A,,Clear,330,2013-01-16 21:53:00
12:53 PM,78.8,66.2,65,29.86,10.0,NNW,13.8,-,N/A,,Clear,330,2013-01-16 22:53:00
1:53 PM,-9999,-9999,N/A,29.85,10.0,NNW,12.7,-,N/A,,Clear,330,2013-01-16 23:53:00
2:53 PM,-9999,-9999,N/A,29.84,10.0,NW,13.8,-,N/A,,Clear,320,2013-01-17 00:53:00
3:53 PM,-9999,-9999,N/A,29.84,10.0,NNW,13.8,-,N/A,,Clear,330,2013-01-17 01:53:00
4:53 PM,-9999,-9999,N/A,29.85,10.0,North,11.5,-,N/A,,Clear,350,2013-01-17 02:53:00
5:53 PM,-9999,-9999,N/A,29.86,10.0,NNW,10.4,-,N/A,,Clear,330,2013-01-17 03:53:00
6:53 PM,-9999,-9999,N/A,29.88,10.0,NNW,9.2,-,N/A,,Clear,340,2013-01-17 04:53:00
7:53 PM,-9999,-9999,N/A,29.89,10.0,North,8.1,-,N/A,,Clear,10,2013-01-17 05:53:00
8:53 PM,-9999,-9999,N/A,29.90,10.0,North,6.9,-,N/A,,Clear,350,2013-01-17 06:53:00
9:53 PM,-9999,-9999,N/A,29.89,10.0,WNW,3.5,-,N/A,,Clear,290,2013-01-17 07:53:00
10:53 PM,-9999,-9999,N/A,29.89,10.0,ESE,5.8,-,N/A,,Clear,110,2013-01-17 08:53:00
11:53 PM,-9999,-9999,N/A,29.89,10.0,Calm,Calm,-,N/A,,Clear,0,2013-01-17 09:53:00